Bar Harbor, ME

6:23 AM EDT on July 24, 2017 (GMT -0400)
Hancock County-Bar Harbor

Weather History for KBHB - September, 2012

Change the Weather History Date:

Wednesday, September 26, 2012

  Actual Average Record
Temperature  
Mean Temperature 60 °F -  
Max Temperature 64 °F 62 °F 78 °F (2011)
Min Temperature 57 °F 46 °F 36 °F (1956)
Degree Days  
Heating Degree Days 4    
Growing Degree Days 10 (Base 50)    
Moisture  
Dew Point 59 °F    
Average Humidity 93    
Maximum Humidity 100    
Minimum Humidity 83    
Precipitation  
Precipitation 0.00 in - - ()
Sea Level Pressure  
Sea Level Pressure 30.05 in    
Wind  
Wind Speed 10 mph (SSW)    
Max Wind Speed 21 mph    
Max Gust Speed 28 mph    
Visibility 10 miles    
Events      
Averages and records for this station are not official NWS values.
T = Trace of Precipitation, MM = Missing Value Source: NWS Daily Summary

Daily Weather History Graph

Daily Weather History Graph

Search for Another Location

Airport or City:

Trip Planner

Search our weather history database for the weather conditions in past years. The results will help you decide how hot, cold, wet, or windy it might be!

Date:

Astronomy

Sep. 26, 2012 Rise Set
Actual Time 6:25 AM EDT 6:22 PM EDT
Civil Twilight 5:56 AM EDT 6:51 PM EDT
Nautical Twilight 5:22 AM EDT 7:25 PM EDT
Astronomical Twilight 4:48 AM EDT 7:59 PM EDT
Moon 4:25 PM EDT (9/26) 2:40 AM EDT (9/26)
Length of Visible Light 12h 54m
Length of Day
11h 56m
Waxing Gibbous, 88% of the Moon is Illuminated
Sep 26
Waxing Gibbous
Sep 29
Full
Oct 8
Last Quarter
Oct 15
New
Oct 21
First Quarter

Hourly Weather History & Observations

Time (EDT) Temp. Dew Point Humidity Pressure Visibility Wind Dir Wind Speed Gust Speed Precip Events Conditions
12:35 AM 59.0 °F 57.2 °F 94% 30.12 in 10.0 mi SSW 6.9 mph - N/A   Clear
1:15 AM 59.0 °F 57.2 °F 94% 30.12 in 10.0 mi SSW 6.9 mph - N/A   Clear
1:35 AM 59.0 °F 57.2 °F 94% 30.11 in 10.0 mi SSW 9.2 mph - N/A   Clear
1:55 AM 59.0 °F 55.4 °F 88% 30.11 in 10.0 mi SSW 6.9 mph - N/A   Clear
2:15 AM 57.2 °F 55.4 °F 94% 30.10 in 10.0 mi SSW 8.1 mph - N/A   Clear
2:35 AM 59.0 °F 57.2 °F 94% 30.10 in 10.0 mi SSW 8.1 mph - N/A   Clear
3:15 AM 57.2 °F 55.4 °F 94% 30.10 in 10.0 mi SSW 6.9 mph - N/A   Clear
3:35 AM 57.2 °F 55.4 °F 94% 30.10 in 10.0 mi SSW 8.1 mph - N/A   Clear
3:55 AM 59.0 °F 57.2 °F 94% 30.10 in 10.0 mi SSW 10.4 mph - N/A   Clear
4:15 AM 59.0 °F 57.2 °F 94% 30.10 in 10.0 mi SSW 11.5 mph - N/A   Clear
4:35 AM 59.0 °F 57.2 °F 94% 30.10 in 10.0 mi South 9.2 mph - N/A   Clear
4:55 AM 59.0 °F 57.2 °F 94% 30.10 in 10.0 mi South 8.1 mph - N/A   Clear
5:15 AM 59.0 °F 57.2 °F 94% 30.10 in 10.0 mi South 9.2 mph - N/A   Clear
5:35 AM 59.0 °F 57.2 °F 94% 30.10 in 10.0 mi South 5.8 mph - N/A   Mostly Cloudy
5:55 AM 60.8 °F 59.0 °F 94% 30.10 in 10.0 mi South 10.4 mph - N/A   Overcast
6:15 AM 60.8 °F 57.2 °F 88% 30.10 in 10.0 mi South 12.7 mph - N/A   Overcast
6:36 AM 60.8 °F 57.2 °F 88% 30.10 in 10.0 mi South 12.7 mph 16.1 mph N/A   Overcast
6:55 AM 60.8 °F 57.2 °F 88% 30.10 in 10.0 mi South 11.5 mph - N/A   Overcast
7:15 AM 60.8 °F 57.2 °F 88% 30.10 in 10.0 mi South 10.4 mph - N/A   Overcast
7:35 AM 60.8 °F 57.2 °F 88% 30.10 in 10.0 mi South 13.8 mph - N/A   Overcast
8:35 AM 60.8 °F 59.0 °F 94% 30.10 in 10.0 mi SSW 11.5 mph 17.3 mph N/A   Mostly Cloudy
8:55 AM 62.6 °F 59.0 °F 88% 30.10 in 10.0 mi South 11.5 mph - N/A   Mostly Cloudy
9:15 AM 60.8 °F 59.0 °F 94% 30.10 in 10.0 mi South 9.2 mph - N/A   Overcast
9:35 AM 62.6 °F 59.0 °F 88% 30.10 in 10.0 mi SSW 16.1 mph - N/A   Mostly Cloudy
9:55 AM 62.6 °F 59.0 °F 88% 30.10 in 10.0 mi SSW 17.3 mph 23.0 mph N/A   Mostly Cloudy
10:15 AM 60.8 °F 59.0 °F 94% 30.10 in 10.0 mi SSW 20.7 mph 26.5 mph N/A   Overcast
10:35 AM 62.6 °F 59.0 °F 88% 30.10 in 9.0 mi South 13.8 mph - N/A   Overcast
11:15 AM 62.6 °F 59.0 °F 88% 30.08 in 10.0 mi South 17.3 mph 26.5 mph N/A   Overcast
11:35 AM 62.6 °F 60.8 °F 94% 30.07 in 10.0 mi SSW 16.1 mph - N/A   Overcast
11:55 AM 62.6 °F 60.8 °F 94% 30.08 in 10.0 mi SSW 13.8 mph 21.9 mph N/A   Overcast
12:15 PM 62.6 °F 60.8 °F 94% 30.07 in 10.0 mi South 19.6 mph 25.3 mph N/A   Overcast
12:35 PM 62.6 °F 60.8 °F 94% 30.07 in 10.0 mi SSW 12.7 mph - N/A   Overcast
12:55 PM 62.6 °F 59.0 °F 88% 30.06 in 10.0 mi South 19.6 mph 24.2 mph N/A   Overcast
1:15 PM 62.6 °F 59.0 °F 88% 30.05 in 10.0 mi South 13.8 mph 21.9 mph N/A   Overcast
1:35 PM 64.4 °F 59.0 °F 83% 30.04 in 10.0 mi SSW 16.1 mph 20.7 mph N/A   Overcast
1:55 PM 62.6 °F 59.0 °F 88% 30.03 in 10.0 mi SSW 15.0 mph 23.0 mph N/A   Overcast
2:15 PM 62.6 °F 59.0 °F 88% 30.03 in 10.0 mi South 17.3 mph 24.2 mph N/A   Overcast
2:36 PM 62.6 °F 60.8 °F 94% 30.03 in 10.0 mi SSW 16.1 mph 27.6 mph N/A   Overcast
2:55 PM 62.6 °F 60.8 °F 94% 30.02 in 10.0 mi SSW 12.7 mph 19.6 mph N/A   Overcast
3:15 PM 62.6 °F 60.8 °F 94% 30.01 in 10.0 mi SSW 17.3 mph 23.0 mph N/A   Overcast
3:35 PM 62.6 °F 60.8 °F 94% 30.01 in 10.0 mi SSW 13.8 mph 19.6 mph N/A   Overcast
3:55 PM 62.6 °F 60.8 °F 94% 29.99 in 10.0 mi SSW 16.1 mph 20.7 mph N/A   Overcast
4:15 PM 62.6 °F 60.8 °F 94% 29.99 in 10.0 mi SSW 15.0 mph 21.9 mph N/A   Overcast
4:35 PM 62.6 °F 60.8 °F 94% 29.99 in 9.0 mi SSW 10.4 mph 18.4 mph N/A   Overcast
4:55 PM 62.6 °F 60.8 °F 94% 29.99 in 4.0 mi SSW 9.2 mph - N/A   Overcast
5:15 PM 62.6 °F 60.8 °F 94% 29.99 in 7.0 mi SSW 9.2 mph - N/A   Overcast
5:35 PM 62.6 °F 60.8 °F 94% 29.99 in 8.0 mi SSW 9.2 mph - N/A   Overcast
6:15 PM 62.6 °F 60.8 °F 94% 29.98 in 9.0 mi SSW 11.5 mph - N/A   Overcast
6:35 PM 62.6 °F 60.8 °F 94% 29.98 in 10.0 mi SSW 8.1 mph - N/A   Overcast
6:55 PM 62.6 °F 60.8 °F 94% 29.99 in 10.0 mi SSW 8.1 mph - N/A   Overcast
7:15 PM 62.6 °F 60.8 °F 94% 29.99 in 10.0 mi SSW 6.9 mph - N/A   Overcast
7:35 PM 62.6 °F 60.8 °F 94% 29.99 in 10.0 mi SSW 5.8 mph - N/A   Overcast
7:55 PM 62.6 °F 60.8 °F 94% 29.99 in 10.0 mi SSW 8.1 mph - N/A   Overcast
8:15 PM 62.6 °F 60.8 °F 94% 29.99 in 10.0 mi SSW 6.9 mph - N/A   Overcast
8:35 PM 62.6 °F 60.8 °F 94% 29.99 in 10.0 mi SSW 9.2 mph - N/A   Overcast
8:55 PM 62.6 °F 60.8 °F 94% 29.99 in 10.0 mi SW 6.9 mph - N/A   Overcast
9:55 PM 60.8 °F 59.0 °F 94% 29.97 in 8.0 mi SSW 3.5 mph - N/A   Overcast
10:15 PM 60.8 °F 60.8 °F 100% 29.97 in 8.0 mi South 6.9 mph - N/A   Overcast
10:35 PM 62.6 °F 60.8 °F 94% 29.97 in 8.0 mi SSW 8.1 mph - N/A   Overcast
10:55 PM 62.6 °F 60.8 °F 94% 29.97 in 8.0 mi SSW 8.1 mph - N/A   Overcast
11:15 PM 62.6 °F 62.6 °F 100% 29.97 in 9.0 mi SSW 8.1 mph - N/A   Overcast
11:35 PM 62.6 °F 62.6 °F 100% 29.96 in 9.0 mi SW 5.8 mph - N/A   Overcast
11:55 PM 62.6 °F 62.6 °F 100% 29.96 in 9.0 mi SW 3.5 mph - N/A   Overcast